FW2249 Vancouver CA current weather conditions

sailwx.info

Wind from 160 at 2 knots gusting 5

Air temperature 17.2° C
Dewpoint 12.1° C

Last reported at 2020-Jul-08 04:01 UTC.
Time now 2020-Jul-08 04:46 UTC

Location: N 49°17' W 123°05'.
View on Google Maps.

See reports from other nearby stations

  
Tides and Currents Weather Stations Pressure Air Temp Water Temp Dewpoint Dewpoint Depression Visibility Wind Speed Wind Dir Waves Ship Positions
date/time (UTC)wind fromknots sea level pressurealtimeterstation pressurevisibilityair tempwater tempwave heightnotes
2020-Jul-08 04:01 160 2 gusting 5 17.2
2020-Jul-08 03:51 135 17.8
2020-Jul-08 03:41 023 17.8
2020-Jul-08 03:31 090 17.8
2020-Jul-08 03:21 225 17.8
2020-Jul-08 03:11 315 17.8
2020-Jul-08 03:01 324 17.2
2020-Jul-08 02:51 337 17.8
2020-Jul-08 02:41 180 17.8
2020-Jul-08 02:31 305 0 gusting 4 17.8
2020-Jul-08 02:21 281 17.8
2020-Jul-08 02:11 321 17.2
2020-Jul-08 02:01 293 17.2
2020-Jul-08 01:51 029 1 gusting 3 17.8
2020-Jul-08 01:41 317 2 gusting 4 17.2
2020-Jul-08 01:31 310 3 gusting 5 17.2
2020-Jul-08 01:21 291 3 gusting 5 17.2
2020-Jul-08 01:11 308 2 gusting 5 17.2
2020-Jul-08 01:01 300 3 gusting 5 17.2
2020-Jul-08 00:51 288 3 gusting 6 17.2
2020-Jul-08 00:41 308 3 gusting 5 17.2
2020-Jul-08 00:31 332 2 gusting 4 16.7
2020-Jul-08 00:21 301 3 gusting 6 16.7
2020-Jul-08 00:11 270 5 gusting 7 16.7
2020-Jul-08 00:01 289 6 gusting 7 16.7
2020-Jul-07 23:51 292 3 gusting 8 17.2
2020-Jul-07 23:41 311 3 gusting 6 17.2
2020-Jul-07 23:31 340 4 gusting 7 17.2
2020-Jul-07 23:21 280 4 gusting 6 17.8
2020-Jul-07 23:11 264 3 gusting 6 19.4
2020-Jul-07 23:01 184 4 gusting 6 19.4
2020-Jul-07 22:51 165 1 gusting 5 20.6
2020-Jul-07 22:41 204 2 gusting 6 20.6
2020-Jul-07 22:31 188 2 gusting 4 20.6
2020-Jul-07 22:21 199 3 gusting 5 20.0
2020-Jul-07 22:11 166 1 gusting 5 20.6
2020-Jul-07 22:01 161 3 gusting 5 20.6
2020-Jul-07 21:51 174 2 gusting 6 20.0
2020-Jul-07 21:41 100 2 gusting 5 20.6
2020-Jul-07 21:31 148 0 gusting 5 20.0
2020-Jul-07 21:21 134 3 gusting 5 19.4
2020-Jul-07 21:01 079 4 gusting 6 18.9
2020-Jul-07 20:51 048 4 gusting 6 18.3
2020-Jul-07 20:41 072 3 gusting 7 18.9
2020-Jul-07 20:31 110 3 gusting 6 18.9
2020-Jul-07 20:21 094 3 gusting 6 18.9
2020-Jul-07 17:11 045 5 gusting 9 16.1
2020-Jul-07 17:01 033 5 gusting 8 16.1
2020-Jul-07 16:51 044 3 gusting 6 15.6
2020-Jul-07 16:41 070 4 gusting 6 15.0
2020-Jul-07 16:31 086 4 gusting 7 15.0
2020-Jul-07 16:21 070 3 gusting 6 15.0
2020-Jul-07 16:11 065 4 gusting 6 15.0
2020-Jul-07 16:01 060 5 gusting 6 15.0
2020-Jul-07 13:11 075 3 gusting 5 12.8
2020-Jul-07 13:01 069 2 gusting 4 12.8
2020-Jul-07 12:51 093 3 gusting 6 12.8
2020-Jul-07 12:41 093 3 gusting 5 12.8
2020-Jul-07 12:31 043 2 gusting 6 13.3
2020-Jul-07 12:21 078 2 gusting 6 13.3
2020-Jul-07 12:11 077 4 gusting 6 13.3
2020-Jul-07 12:01 103 3 gusting 6 13.3
2020-Jul-07 11:51 117 4 gusting 7 12.8
2020-Jul-07 11:41 096 6 gusting 8 13.3
2020-Jul-07 11:31 123 5 gusting 7 13.9
2020-Jul-07 11:21 133 5 gusting 7 14.4
2020-Jul-07 11:11 098 3 gusting 6 15.0
2020-Jul-07 11:01 115 4 gusting 7 15.0
2020-Jul-07 10:51 138 4 gusting 7 15.6
2020-Jul-07 10:41 150 1 gusting 6 15.6
2020-Jul-07 10:31 106 2 gusting 5 15.6
2020-Jul-07 10:21 114 0 gusting 4 15.6
2020-Jul-07 10:11 098 1 gusting 3 15.6
2020-Jul-07 10:01 023 15.6
2020-Jul-07 09:51 113 15.6
2020-Jul-07 09:41 140 2 gusting 5 15.6
2020-Jul-07 09:31 148 3 gusting 4 15.6
2020-Jul-07 09:21 140 2 gusting 4 15.6
2020-Jul-07 09:11 141 4 gusting 6 15.6
2020-Jul-07 09:01 137 3 gusting 6 16.1
2020-Jul-07 08:51 137 1 gusting 4 16.1
2020-Jul-07 08:41 135 2 gusting 4 16.1
2020-Jul-07 08:31 138 3 gusting 5 16.1
2020-Jul-07 08:21 135 0 gusting 4 16.1
2020-Jul-07 08:11 106 2 gusting 4 16.1
2020-Jul-07 08:01 123 1 gusting 4 16.7
2020-Jul-07 07:51 108 4 gusting 5 16.7
2020-Jul-07 07:41 106 3 gusting 4 16.7
2020-Jul-07 07:31 086 1 gusting 5 16.7
2020-Jul-07 07:21 113 16.7
2020-Jul-07 07:11 045 16.1
2020-Jul-07 07:01 068 16.1
2020-Jul-07 06:51 070 1 gusting 3 16.7
2020-Jul-07 06:41 045 16.7
2020-Jul-07 06:31 023 16.7
2020-Jul-07 06:21 085 0 gusting 3 16.7
2020-Jul-07 06:11 086 0 gusting 4 16.7
2020-Jul-07 06:01 045 16.7
2020-Jul-07 05:51 078 16.7
2020-Jul-07 05:41 062 0 gusting 3 17.2
2020-Jul-07 05:31 023 0 gusting 4 17.2
2020-Jul-07 05:21 113 17.2
2020-Jul-07 05:11 068 17.2
2020-Jul-07 05:01 113 17.2
2020-Jul-07 04:51 090 17.2
2020-Jul-07 04:41 122 17.2
2020-Jul-07 04:31 138 1 gusting 3 17.2
2020-Jul-07 04:21 128 1 gusting 3 17.8
2020-Jul-07 04:11 123 2 gusting 4 17.8
2020-Jul-07 04:01 138 3 gusting 4 18.3
2020-Jul-07 03:51 137 3 gusting 5 18.3
2020-Jul-07 03:41 169 2 gusting 5 18.9
2020-Jul-07 03:31 172 2 gusting 5 18.9
2020-Jul-07 03:21 177 4 gusting 6 18.9
2020-Jul-07 03:11 155 4 gusting 5 18.9
2020-Jul-07 03:01 150 5 gusting 7 19.4
2020-Jul-07 02:51 159 5 gusting 6 20.0
2020-Jul-07 02:41 144 5 gusting 8 20.6
2020-Jul-07 02:31 155 5 gusting 7 21.1
2020-Jul-07 02:21 158 5 gusting 7 21.7
2020-Jul-07 02:11 178 4 gusting 8 22.8
2020-Jul-07 02:01 184 5 gusting 7 21.7
2020-Jul-07 01:51 177 4 gusting 6 21.7
2020-Jul-07 01:41 158 5 gusting 6 21.7
2020-Jul-07 01:31 154 5 gusting 8 21.7
2020-Jul-07 01:21 168 4 gusting 7 22.2
2020-Jul-07 01:11 205 4 gusting 6 23.3
2020-Jul-07 01:01 162 3 gusting 6 23.3
2020-Jul-07 00:51 162 4 gusting 6 22.8
2020-Jul-07 00:41 147 2 gusting 6 23.3
2020-Jul-07 00:31 155 4 gusting 6 22.2
2020-Jul-07 00:21 185 3 gusting 6 22.8
2020-Jul-07 00:11 144 5 gusting 7 22.8
2020-Jul-07 00:01 160 5 gusting 8 22.8
2020-Jul-06 23:51 186 4 gusting 6 22.8
2020-Jul-06 23:41 172 5 gusting 7 22.2
2020-Jul-06 23:31 153 5 gusting 7 21.7
2020-Jul-06 23:21 151 5 gusting 7 20.6
2020-Jul-06 23:11 151 4 gusting 8 21.7
2020-Jul-06 23:01 156 5 gusting 8 22.8
2020-Jul-06 22:51 172 4 gusting 8 22.8
2020-Jul-06 22:41 181 5 gusting 8 22.8
2020-Jul-06 22:31 159 6 gusting 8 22.2
2020-Jul-06 22:21 168 6 gusting 7 21.7
2020-Jul-06 22:11 161 6 gusting 9 22.8
2020-Jul-06 22:01 152 6 gusting 11 22.2
2020-Jul-06 21:51 161 6 gusting 10 22.2
2020-Jul-06 21:41 210 6 gusting 9 22.8
2020-Jul-06 21:31 150 6 gusting 10 22.2
2020-Jul-06 21:21 178 6 gusting 9 22.8
2020-Jul-06 21:11 158 6 gusting 9 22.8
2020-Jul-06 21:01 163 5 gusting 8 23.3
2020-Jul-06 20:51 172 5 gusting 7 23.3
2020-Jul-06 20:41 155 5 gusting 7 22.8
2020-Jul-06 20:31 159 6 gusting 10 22.8
2020-Jul-06 20:21 169 6 gusting 9 22.2
2020-Jul-06 20:11 177 6 gusting 7 22.8
2020-Jul-06 20:01 175 6 gusting 8 21.7
2020-Jul-06 19:51 171 6 gusting 10 22.2
2020-Jul-06 19:41 157 6 gusting 11 21.7
2020-Jul-06 19:31 181 6 gusting 11 21.7
2020-Jul-06 19:21 174 6 gusting 8 21.1
2020-Jul-06 19:11 154 6 gusting 9 21.1
2020-Jul-06 19:01 170 4 gusting 7 20.6
2020-Jul-06 18:51 146 5 gusting 7 20.0
2020-Jul-06 18:41 137 4 gusting 6 20.0
2020-Jul-06 18:31 157 4 gusting 7 20.6
2020-Jul-06 18:21 157 4 gusting 9 20.6
2020-Jul-06 18:11 167 5 gusting 8 20.0
2020-Jul-06 18:01 167 6 gusting 8 21.7
2020-Jul-06 17:51 174 5 gusting 7 22.2
2020-Jul-06 17:41 191 4 gusting 7 22.8
2020-Jul-06 17:31 139 3 gusting 5 22.2
2020-Jul-06 17:21 095 4 gusting 6 20.6
2020-Jul-06 17:11 128 3 gusting 6 20.6
2020-Jul-06 17:01 123 4 gusting 6 20.0
2020-Jul-06 16:51 097 4 gusting 6 20.0
2020-Jul-06 16:41 107 1 gusting 5 20.0
2020-Jul-06 16:31 106 4 gusting 6 18.3
2020-Jul-06 16:21 097 4 gusting 6 18.3
2020-Jul-06 16:11 088 4 gusting 6 18.3
2020-Jul-06 16:01 101 3 gusting 5 17.8
2020-Jul-06 15:51 106 3 gusting 5 17.8
2020-Jul-06 15:41 073 1 gusting 4 17.2
2020-Jul-06 15:31 119 3 gusting 5 17.2
2020-Jul-06 15:21 073 2 gusting 5 17.2
2020-Jul-06 15:11 111 2 gusting 5 16.7
2020-Jul-06 15:01 105 3 gusting 6 16.7
2020-Jul-06 14:51 087 2 gusting 6 17.8
2020-Jul-06 14:41 104 2 gusting 5 16.7
2020-Jul-06 14:31 069 1 gusting 5 16.1
2020-Jul-06 14:21 070 0 gusting 4 15.0
2020-Jul-06 14:11 045 15.0
2020-Jul-06 14:01 135 14.4
2020-Jul-06 13:51 068 14.4
2020-Jul-06 13:41 023 13.9
2020-Jul-06 13:31 113 13.9
2020-Jul-06 13:21 023 13.9
2020-Jul-06 13:11 023 13.3
2020-Jul-06 13:01 068 13.3
2020-Jul-06 12:51 045 12.8
2020-Jul-06 12:41 068 12.8
2020-Jul-06 12:31 045 12.2
2020-Jul-06 12:21 158 12.2
2020-Jul-06 12:11 135 12.8
2020-Jul-06 12:01 180 12.8
2020-Jul-06 11:51 158 12.8
2020-Jul-06 11:41 113 12.8
2020-Jul-06 11:31 090 12.8
2020-Jul-06 11:21 068 12.8
2020-Jul-06 11:11 045 12.8
2020-Jul-06 11:01 068 12.8
2020-Jul-06 10:51 068 12.8
2020-Jul-06 10:41 045 12.8
2020-Jul-06 10:31 045 12.8
2020-Jul-06 10:21 097 13.3
2020-Jul-06 10:11 057 1 gusting 3 13.3
2020-Jul-06 10:01 090 13.3
2020-Jul-06 09:51 023 13.3
2020-Jul-06 09:41 068 13.3
2020-Jul-06 09:31 045 13.3
2020-Jul-06 09:21 068 13.3
2020-Jul-06 09:11 045 13.3
2020-Jul-06 09:01 113 13.9
2020-Jul-06 08:51 068 13.9
2020-Jul-06 08:41 064 1 gusting 4 13.9
2020-Jul-06 08:31 074 2 gusting 4 13.9
2020-Jul-06 08:21 069 0 gusting 3 13.9
2020-Jul-06 08:11 035 1 gusting 3 14.4
2020-Jul-06 08:01 059 0 gusting 4 14.4
2020-Jul-06 07:51 060 0 gusting 3 14.4
2020-Jul-06 07:41 113 14.4
2020-Jul-06 07:31 041 14.4
2020-Jul-06 07:21 056 0 gusting 4 14.4
2020-Jul-06 07:11 063 1 gusting 3 15.0
2020-Jul-06 07:01 042 3 gusting 5 15.0
2020-Jul-06 06:51 070 1 gusting 3 15.0
2020-Jul-06 06:41 062 3 gusting 5 15.6
2020-Jul-06 06:31 070 2 gusting 4 15.6
2020-Jul-06 06:21 033 4 gusting 6 15.6
2020-Jul-06 06:11 051 4 gusting 6 16.1
2020-Jul-06 06:01 036 4 gusting 6 16.1
2020-Jul-06 05:51 063 4 gusting 6 16.1
2020-Jul-06 05:41 049 1 gusting 4 16.7
2020-Jul-06 05:31 067 1 gusting 4 16.7
2020-Jul-06 05:21 023 16.7
2020-Jul-06 05:11 023 16.7
2020-Jul-06 05:01 293 17.2
2020-Jul-06 04:51 360 17.8
2020-Jul-06 04:41 315 17.8
2020-Jul-06 04:31 293 18.3
2020-Jul-06 04:21 338 18.3
2020-Jul-06 04:11 270 18.9
2020-Jul-06 04:01 315 19.4